Regional Weather Roundup
Issued by NWS

Home | Current Version | Previous Version | Text Only | Print | Product List | Glossary On
Versions: 1 2 3 4 5 6 7 8 9 10 11 12 13 14 15 16 17 18 19 20 21 22 23 24 25 26 27
000
ASUS44 KLIX 061513
RWRLA
LOUISIANA WEATHER ROUNDUP
NATIONAL WEATHER SERVICE NEW ORLEANS LA
900 AM CST TUE DEC 06 2016

NOTE: "FAIR" INDICATES FEW OR NO CLOUDS BELOW 12,000 FEET WITH NO
      SIGNIFICANT WEATHER AND/OR OBSTRUCTIONS TO VISIBILITY.
      SKY/WX - SKY CONDITION AND SIGNIFICANT WEATHER.
      TMP - AIR TEMPERATURE.    DP   - DEWPOINT TEMPERATURE.
      RH  - RELATIVE HUMIDITY.  PRES - PRESSURE.
      HX  - HEAT INDEX.         WCI  - WIND CHILL INDEX.

*  THESE STATIONS ARE NOT NWS OR FAA STATIONS AND ARE NOT UNDER
   NWS QUALITY CONTROL.

LAZ040-048-061>063-065-066-069-061600-
SOUTHEAST LOUISIANA

CITY           SKY/WX    TMP DP  RH WIND       PRES   REMARKS
N.O. AUDUBON   NOT AVBL
N.O. INTL ARPT CLOUDY    56  53  90 W10       29.93R
N.O. LAKEFRONT CLOUDY    57  53  86 W21       29.92R
N.O. DOWNTOWN*   N/A     57  52  83 VRB7      29.94R
RESERVE*       CLOUDY    57  53  85 W6        29.93R
SLIDELL        CLOUDY    57  52  83 VRB5      29.91R
BATON ROUGE    CLOUDY    54  51  90 W9        29.93R
BOOTHVILLE     SUNNY     58  53  84 W20G25    29.93R
BELLE CHASSE   PTSUNNY   56  53  90 W8        29.93R
BOGALUSA*      CLOUDY    57  50  78 W10       29.91R
GALLIANO*      PTSUNNY   58  50  75 W13       29.94R
NEW ROADS*     CLOUDY    53  50  89 W7        29.94R
GONZALES*      CLOUDY    54  51  87 W5        29.92R
HAMMOND*       CLOUDY    54  50  87 W9        29.92R
HOUMA*         CLOUDY    55  52  88 W12       29.94R
PORT FOURCHON* SUNNY     61  54  77 W15G23    29.94R

$$

LAZ041-044-053-054-061600-
SOUTHWEST LOUISIANA

CITY           SKY/WX    TMP DP  RH WIND       PRES   REMARKS
LAKE CHARLES   CLOUDY    53  50  89 NW5       29.94R
LAFAYETTE      CLOUDY    54  51  90 W8        29.95R
PATTERSON      CLOUDY   N/A N/A N/A NW7       29.95R
SALT POINT     NOT AVBL
NEW IBERIA     CLOUDY    56  50  80 W8        29.95R
CHENAULT AIRPK CLOUDY    54  50  87 VRB6      29.94R

$$

LAZ027-028-061600-
CENTRAL LOUISIANA

CITY           SKY/WX    TMP DP  RH WIND       PRES   REMARKS
FORT POLK      CLOUDY    51  50  97 NW6       29.92R
ALEXANDRIA INT CLOUDY    51  49  92 W7        29.92R
ALEXANDRIA     CLOUDY    51  50  96 W3        29.92R

$$

LAZ001-002-061600-
NORTHWEST LOUISIANA

CITY           SKY/WX    TMP DP  RH WIND       PRES   REMARKS
SHREVEPORT     CLOUDY    51  49  92 NW9       29.91R
BARKSDALE AFB  CLOUDY    50  50 100 NW9       29.91R
DTN SHREVEPORT CLOUDY    50  48  93 NW7       29.91R

$$

LAZ014-016-061600-
NORTHEAST LOUISIANA

CITY           SKY/WX    TMP DP  RH WIND       PRES   REMARKS
MONROE         CLOUDY    51  47  86 W10       29.92R
TALLULAH       CLOUDY    50  48  93 NW8       29.90R

$$





USA.gov is the U.S. government's official web portal to all federal, state and local government web resources and services.